THOR ABLESTAR DEB, 123

Orbit data source: Space-Track

THOR ABLESTAR DEB, 123 is space debris in LEO originally from a launch on Thu, 29 Jun 1961 UTC launched from the Air Force Eastern Test Range (AFETR). Debris objects in space refer to the collection of defunct objects orbiting the Earth. Examples of debris include non-operational satellites, rocket bodies, and fragments generated from explosions, collisions, or faulty payload assembly.

Loading next visibility...
Identifier
123, 1961-015H
Orbit
LEO
Country
Flag of USUS
Related business
Manufacturer
Unknown
Mission
Spacecraft
Bus & Motor
Unknown
Mass
Unknown
Launch date (UTC)
1961-06-29 (65 years ago)
Launch vehicle
Unknown
Launch site
Air Force Eastern Test Range (AFETR)
Object type
Payload
Rocket body
Debris
Shape & HBR
Unknown shape, 0.3 m
Radar Cross Section
Medium (>0.1 m² and <1 m²)

Expand to show TLE details & history
Last TLE update: 17 hours ago

TLE from 17 hours ago
0 THOR ABLESTAR DEB
1 00123U 61015H   26015.69896015  .00000328  00000-0  12173-3 0  9997
2 00123  66.6864 114.6748 0106641  17.6334 342.8425 14.41425124357558
Epoch: 2026-01-15T16:46Z
TLE epoch observation values (Epoch: 2026-01-15T16:46:30.156Z)
Latitude
-0.00008°
Longitude
107.90027°
Altitude
683.303 km
Speed
7.553 km/s
True Right ascension
07h 38m 41s
True Declination
0° 00' 00"
Sunlit
Object was in full shadow at epoch
Visualization orbit readout
Latitude
Unknown
Longitude
Unknown
Altitude
Unknown
Speed
Unknown
Apparent Right ascension
Unknown
Apparent Declination
Unknown
Sunlit
N/A
Visualization observer readout
Local Sidereal Time
10:48:34
Azimuth
Unknown
Elevation
Unknown
Doppler factor
Unknown
Orbital elements
Apogee altitude
828.2 km
Perigee altitude
676.123 km
Semi-major axis
7,130.298 km
Eccentricity
0.01066
Inclination
66.6864°
RAAN
114.6748°
Arg. of periapsis
17.6334°
True anomaly
342.47736°
Mean anomaly
342.8425°
Eccentric anomaly
342.6604°
Mean motion
3.6048 °/min
Orbital period
99.87 mins
BSTAR
0.00012173
Loading maneuver chart data...
Computing Atmospheric mass density...

Documentation

Showing up to 5 results
|